Regional Weather Roundup
Issued by NWS Sioux Falls, SD

Home | Current Version | Previous Version | Text Only | Print | Product List | Glossary On
Versions: 1 2 3 4 5 6 7 8 9 10 11 12 13 14 15 16 17 18 19 20 21 22 23 24 25 26 27 28 29 30 31 32 33 34 35 36 37 38 39 40 41 42 43 44 45 46 47 48 49 50
631
ASUS43 KFSD 171810
RWRFSD

WEATHER ROUNDUP FOR SE SOUTH DAKOTA/SW MINNESOTA/NW IOWA
NATIONAL WEATHER SERVICE SIOUX FALLS SD
1200 PM CST SUN DEC 17 2017

NOTE: "FAIR" INDICATES FEW OR NO CLOUDS BELOW 12,000 FEET WITH NO
SIGNIFICANT WEATHER AND OR OBSTRUCTIONS TO VISIBILITY.


SDZ038>040-050-052>070-171900-
SOUTHEAST SOUTH DAKOTA

CITY           SKY/WX    TMP DP  RH WIND       PRES   REMARKS
BROOKINGS      CLOUDY    34  31  88 CALM      30.02F
CHAMBERLAIN    CLOUDY    37  35  89 W6        30.04F
6HR MIN TEMP:  30; 6HR MAX TEMP:  37;

HURON          CLOUDY    37  33  85 MISG      30.03F
6HR MIN TEMP:  28; 6HR MAX TEMP:  37;

MADISON        CLOUDY    34  32  93 NW3       30.03F
MITCHELL       CLOUDY    36  33  89 CALM      30.06F
6HR MIN TEMP:  28; 6HR MAX TEMP:  37;

SIOUX FALLS    PTSUNNY   33  30  88 CALM      30.03F
6HR MIN TEMP:  22; 6HR MAX TEMP:  33;

WINNER         CLOUDY    39  33  79 W3        30.03F
YANKTON        MOSUNNY   36  29  75 N7        30.05F
$$

MNZ071-072-080-081-089-090-097-098-171900-
SOUTHWEST MINNESOTA

CITY           SKY/WX    TMP DP  RH WIND       PRES   REMARKS
FAIRMONT       CLOUDY    29  24  82 N6        30.05S WCI  23
JACKSON        CLOUDY    32  23  69 NE5       30.03S WCI  27
LUVERNE        MOSUNNY   32  28  86 NE3       30.04F
MARSHALL       CLOUDY    30  26  85 CALM      30.05F
6HR MIN TEMP:  25; 6HR MAX TEMP:  30;

MONTEVIDEO     CLOUDY    28  28 100 CALM      30.05F FOG
PIPESTONE      MOSUNNY   28  27  93 N3        30.01F FOG
REDWOOD FALLS  CLOUDY    29  23  78 CALM      30.06F
WINDOM           N/A     28  18  64 N3        30.03F HAZE
WORTHINGTON    CLOUDY    27  26  96 N7        30.03F FOG     WCI  19
$$

IAZ001>003-012>014-020>022-031-032-NEZ013-014-SDZ071-171900-
NORTHWEST IOWA

CITY           SKY/WX    TMP DP  RH WIND       PRES   REMARKS
CHEROKEE       CLOUDY    33  29  85 CALM      30.03F FOG
ESTHERVILLE    CLOUDY    27  23  85 N6        30.02F WCI  20
LE MARS        CLOUDY    32  27  80 NE3       30.05S
ORANGE CITY    LGT SNOW  30  28  93 CALM      30.02F
SHELDON        CLOUDY    28  28 100 NE3       30.01F FOG
SIOUX CITY     CLOUDY    32  27  81 CALM      30.06F
6HR MIN TEMP:  25; 6HR MAX TEMP:  32;

SPENCER        CLOUDY    30  25  81 N6        30.03F WCI  24
6HR MIN TEMP:  26; 6HR MAX TEMP:  30;

STORM LAKE     CLOUDY    27  27 100 CALM      30.03S FOG
$$

ABBREVIATIONS USED IN REMARKS
   TC - TEMPERATURE IN CELSIUS
  WCI - WIND CHILL INDEX
   HX - HEAT INDEX
  VSB - VISIBILITY





USA.gov is the U.S. government's official web portal to all federal, state and local government web resources and services.